Weather History for Jackson, WY

Change the Weather History Date:

Friday, January 4, 2013

  Actual Average Record
Temperature  
Mean Temperature -6 °F -  
Max Temperature 6 °F 21 °F 42 °F (1963)
Min Temperature -18 °F -2 °F -38 °F (1971)
Degree Days  
Heating Degree Days 71    
Moisture  
Dew Point -13 °F    
Average Humidity 87    
Maximum Humidity 92    
Minimum Humidity 78    
Precipitation  
Precipitation 0.00 in - - ()
Sea Level Pressure  
Sea Level Pressure 30.30 in    
Wind  
Wind Speed 6 mph (NNE)    
Max Wind Speed 10 mph    
Max Gust Speed -    
Visibility 10 miles    
Events      
Averages and records for this station are not official NWS values.
T = Trace of Precipitation, MM = Missing Value Source: NWS Daily Summary

Daily Weather History Graph

Daily Weather History Graph

Search for Another Location

Airport:

Trip Planner

Search our weather history database for the weather conditions in past years. The results will help you decide how hot, cold, wet, or windy it might be!

Date:

Astronomy

Jan. 04, 2013 Rise Set
Actual Time 7:56 AM MST 5:00 PM MST
Civil Twilight 7:23 AM MST 5:32 PM MST
Nautical Twilight 6:47 AM MST 6:08 PM MST
Astronomical Twilight 6:13 AM MST 6:43 PM MST
Moon No Moon Rise 11:26 AM MST (1/4)
Length of Visible Light 10h 08m
Length of Day
9h 03m
Waning Gibbous, 54% of the Moon is Illuminated
Jan 4
Waning Gibbous
Jan 4
Last Quarter
Jan 11
New
Jan 18
First Quarter
Jan 26
Full

Hourly Weather History & Observations

Time (MST) Temp. Windchill Dew Point Humidity Pressure Visibility Wind Dir Wind Speed Gust Speed Precip Events Conditions
12:15 AM -13.0 °F -27.0 °F -14.8 °F 92% 30.35 in 10.0 mi NNE 5.8 mph - N/A   Clear
12:35 AM -14.8 °F -33.5 °F -16.6 °F 92% 30.34 in 10.0 mi North 9.2 mph - N/A   Clear
12:55 AM -13.0 °F -31.3 °F -14.8 °F 92% 30.34 in 10.0 mi North 9.2 mph - N/A   Clear
1:15 AM -14.8 °F -32.2 °F -16.6 °F 92% 30.34 in 10.0 mi North 8.1 mph - N/A   Clear
1:35 AM -14.8 °F -33.5 °F -18.4 °F 84% 30.34 in 10.0 mi North 9.2 mph - N/A   Clear
1:55 AM -14.8 °F -30.8 °F -16.6 °F 92% 30.34 in 10.0 mi NNE 6.9 mph - N/A   Clear
2:35 AM -13.0 °F -28.6 °F -16.6 °F 84% 30.34 in 10.0 mi North 6.9 mph - N/A   Clear
2:55 AM -14.8 °F -30.8 °F -16.6 °F 92% 30.34 in 10.0 mi NNE 6.9 mph - N/A   Clear
3:15 AM -13.0 °F -30.0 °F -16.6 °F 84% 30.34 in 10.0 mi North 8.1 mph - N/A   Clear
3:35 AM -13.0 °F -25.1 °F -14.8 °F 92% 30.34 in 10.0 mi NNE 4.6 mph - N/A   Clear
4:15 AM -13.0 °F -25.1 °F -16.6 °F 84% 30.33 in 10.0 mi NNE 4.6 mph - N/A   Clear
4:36 AM -13.0 °F -30.0 °F -16.6 °F 84% 30.33 in 10.0 mi NNE 8.1 mph - N/A   Clear
4:55 AM -13.0 °F -22.7 °F -16.6 °F 84% 30.33 in 10.0 mi NNE 3.5 mph - N/A   Clear
5:15 AM -14.8 °F - -16.6 °F 92% 30.33 in 10.0 mi Calm Calm - N/A   Clear
5:35 AM -14.8 °F -24.8 °F -18.4 °F 84% 30.33 in 10.0 mi North 3.5 mph - N/A   Clear
5:55 AM -16.6 °F -29.3 °F -20.2 °F 84% 30.33 in 10.0 mi North 4.6 mph - N/A   Clear
6:15 AM -16.6 °F -31.3 °F -18.4 °F 92% 30.33 in 10.0 mi North 5.8 mph - N/A   Clear
6:35 AM -16.6 °F -32.9 °F -20.2 °F 84% 30.33 in 10.0 mi North 6.9 mph - N/A   Clear
6:51 AM -16.6 °F -35.7 °F -20.2 °F 84% 30.33 in 10.0 mi North 9.2 mph - N/A   Clear
7:52 AM -18.4 °F -39.1 °F -22.0 °F 84% 30.34 in 10.0 mi North 10.4 mph - N/A   Clear
8:52 AM -14.8 °F -34.6 °F -16.6 °F 92% 30.33 in 10.0 mi North 10.4 mph - N/A   Clear
9:55 AM -7.6 °F -16.5 °F -11.2 °F 84% 30.34 in 10.0 mi NE 3.5 mph - N/A   Partly Cloudy
10:54 AM -4.0 °F - -7.6 °F 85% 30.33 in 10.0 mi Calm Calm - N/A   Clear
11:52 AM -2.2 °F - -4.0 °F 92% 30.30 in 10.0 mi Calm Calm - N/A   Clear
1:06 PM 3.2 °F - -2.2 °F 78% 30.26 in 10.0 mi Calm Calm - N/A   Clear
1:54 PM 3.2 °F - -0.4 °F 85% 30.25 in 10.0 mi Calm Calm - N/A   Clear
2:51 PM 6.8 °F - 1.4 °F 79% 30.24 in 10.0 mi Calm Calm - N/A   Clear
3:51 PM 6.8 °F -2.0 °F 1.4 °F 79% 30.24 in 10.0 mi SE 4.6 mph - N/A   Clear
4:51 PM 3.2 °F - -2.2 °F 78% 30.24 in 10.0 mi Calm Calm - N/A   Clear
5:53 PM -2.2 °F -10.4 °F -5.8 °F 85% 30.25 in 10.0 mi North 3.5 mph - N/A   Clear
6:51 PM -5.8 °F -16.7 °F -9.4 °F 84% 30.25 in 10.0 mi NNE 4.6 mph - N/A   Clear
7:55 PM -11.2 °F -30.1 °F -13.0 °F 92% 30.25 in 10.0 mi North 10.4 mph - N/A   Clear
8:51 PM -7.6 °F -20.6 °F -9.4 °F 92% 30.25 in 10.0 mi NNE 5.8 mph - N/A   Clear
9:15 PM -7.6 °F -18.8 °F -11.2 °F 84% 30.26 in 10.0 mi NNE 4.6 mph - N/A   Clear
9:35 PM -7.6 °F -16.5 °F -9.4 °F 92% 30.26 in 10.0 mi NNE 3.5 mph - N/A   Clear
9:55 PM -9.4 °F -22.7 °F -13.0 °F 84% 30.26 in 10.0 mi North 5.8 mph - N/A   Clear
10:15 PM -9.4 °F - -11.2 °F 92% 30.26 in 10.0 mi Calm Calm - N/A   Clear
10:35 PM -9.4 °F -18.6 °F -13.0 °F 84% 30.26 in 10.0 mi NNE 3.5 mph - N/A   Clear
10:55 PM -11.2 °F -26.4 °F -14.8 °F 84% 30.26 in 10.0 mi North 6.9 mph - N/A   Clear
11:15 PM -13.0 °F -27.0 °F -14.8 °F 92% 30.25 in 10.0 mi NNE 5.8 mph - N/A   Clear
11:35 PM -11.2 °F -29.0 °F -13.0 °F 92% 30.26 in 10.0 mi North 9.2 mph - N/A   Clear
11:55 PM -9.4 °F -20.9 °F -11.2 °F 92% 30.27 in 10.0 mi North 4.6 mph - N/A   Clear